Location: Berlin
(52.5170°N, 13.4000°E)
Time: 06:20:33
(UTC+02:00)

ISS - Pass Details

Date: 16 July 2018
Orbit: 402 x 408 km, 51.6° (Epoch: 23 July)

Event Time Altitude Azimuth Distance (km) Brightness Sun altitude
Exits shadow 00:59:03 27° 123° (ESE) 815 -2.6 -16.0°
Drops below altitude 10° 01:01:12 10° 89° (E) 1,472 -1.0 -16.0°
Sets 01:03:25 0° 79° (E) 2,336 0.2 -16.0°
